This demonstration page uses our WeatherBlox Daily Observations layout. Learn more.

Left ArrowRight Arrow

36.19886, -115.1175

Hourly Observations for May 1, 2020

Temp ( °F °C ) Dew Point ( °F °C ) Humidity (%) Winds ( mph kmh ) Pressure ( in mb ) Visibility ( mi km ) Precip ( " mm )
12:53 am 00:53 Clear 80 26.7 23 -5 12 12 S 10 17 29.73 1007 10 16 N/A
1:53 am 01:53 Clear 79 26.1 26 -3.3 14 14 SSW 12 19 29.72 1007 10 16 N/A
2:53 am 02:53 Clear 76 24.4 27 -2.8 16 16 N N/A 29.73 1007 10 16 N/A
3:53 am 03:53 Clear 71 21.7 31 -0.6 23 23 NNW 5 7 29.74 1007 10 16 N/A
4:53 am 04:53 Clear 68 20 32 undefined 26 26 NNW 6 9 29.75 1008 10 16 N/A
5:53 am 05:53 Sunny 68 20 30 -1.1 24 24 NNW 8 13 29.77 1008 10 16 N/A
6:53 am 06:53 Sunny 71 21.7 32 undefined 24 24 NW 7 11 29.79 1009 10 16 N/A
7:53 am 07:53 Sunny 76 24.4 32 undefined 20 20 NE 3 6 29.80 1009 10 16 N/A
8:53 am 08:53 Sunny 79 26.1 31 -0.6 17 17 N N/A 29.80 1009 10 16 N/A
9:53 am 09:53 Sunny 82 27.8 32 undefined 16 16 N N/A 29.80 1009 10 16 N/A
10:53 am 10:53 Sunny 85 29.4 30 -1.1 14 14 undefined N/A 29.81 1010 10 16 N/A
11:53 am 11:53 Sunny 87 30.6 31 -0.6 13 13 VRB 5 7 29.80 1009 10 16 N/A
12:53 pm 12:53 Sunny 91 32.8 33 0.6 13 13 S 12 19 29.78 1008 10 16 N/A
1:53 pm 13:53 Sunny 93 33.9 33 0.6 12 12 SE 18 30 29.75 1007 10 16 N/A
2:18 pm 14:18 Sunny 94 34.4 31 -0.6 11 11 S 16 26 29.59 1002 10 16 N/A
2:53 pm 14:53 Sunny 95 35 30 -1.1 10 10 SSW 21 33 29.74 1007 10 16 N/A
3:53 pm 15:53 Sunny 94 34.4 29 -1.7 10 10 SSW 21 33 29.72 1007 10 16 N/A
4:53 pm 16:53 Sunny 91 32.8 28 -2.2 10 10 SSW 22 35 29.72 1007 10 16 N/A
5:53 pm 17:53 Sunny 92 33.3 25 -3.9 9 9 SW 22 35 29.73 1007 10 16 N/A
6:53 pm 18:53 Sunny 90 32.2 27 -2.8 10 10 SW 18 30 29.73 1007 10 16 N/A
7:53 pm 19:53 Clear 88 31.1 27 -2.8 11 11 SW 10 17 29.75 1007 10 16 N/A
8:53 pm 20:53 Clear 84 28.9 25 -3.9 11 11 SSE 6 9 29.77 1008 10 16 N/A
9:53 pm 21:53 Clear 84 28.9 25 -3.9 11 11 NNW 6 9 29.79 1009 10 16 N/A
10:53 pm 22:53 Clear 82 27.8 29 -1.7 14 14 S 16 26 29.78 1009 10 16 N/A
11:53 pm 23:53 Clear 81 27.2 28 -2.2 14 14 SSW 10 17 29.79 1009 10 16 N/A

Powered by AerisWeather